Location: Cella
(44.7333°N, 10.5667°E)
Time: 01:44:51
(UTC+00:00)

COSMOS 1867 COOLANT - Pass Details

Date: 24 September 2021
Orbit: 770 x 802 km, 65.0° (Epoch: 21 October)

Event Time Altitude Azimuth Distance (km) Brightness Sun altitude
Rises 21:52:03 0° 317° (NW) 3,319 ? -42.9°
Reaches altitude 10° 21:54:42 10° 308° (NW) 2,383 ? -43.1°
Enters shadow 21:55:09 12° 306° (NW) 2,236 ? -43.1°
